Lid_Strength_Index
0 -1 -1 -1 -1 -2 -1 -2 -1 -2 -2 -2 -2 -2 -2 -2 -2 -3 -3 -3 -2 -2 -2 -2 -2 -2 -2 -2 -2 -2 -2 -2 -2 -2 -2 -2 -2 -2 -2 -2 -2 -1 -2
-1 -1 -1 -2 -1 -2 -1 -2 -2 -2 -2 -2 -2 -2 -2 -2 -2 -2 -3 -2 -2 -2 -2 -2 -2 -2 -2 -2 -2 -2 -2 -2 -2 -2 -2 -2 -2 -2 -2 -2 -2 -1 -2
-1 -1 -1 -1 -2 -1 -2 -2 -2 -2 -2 -2 -2 -2 -2 -2 -2 -2 -2 -2 -2 -2 -2 -2 -2 -2 -2 -2 -2 -2 -2 -2 -2 -1 -1 -1 -1 -2 -2 -2 -2 -2 -2
-1 -1 -1 -1 -2 -2 -2 -2 -2 -2 -2 -2 -2 -2 -2 -2 -2 -2 -2 -2 -2 -2 -2 -2 -2 -2 -2 -2 -2 -2 -2 -2 -1 -2 -1 -1 -1 -2 -2 -2 -2 -2 -2
-1 -1 -1 -1 -2 -1 -2 -2 -2 -2 -2 -2 -2 -2 -2 -2 -2 -2 -2 -2 -2 -2 -2 -2 -2 -2 -2 -2 -2 -2 -2 -2 -1 -2 -1 -1 -1 -2 -2 -2 -2 -2 -1
-1 -1 -1 -1 -2 -1 -1 -1 -1 -2 -2 -2 -2 -2 -2 -2 -2 -2 -2 -2 -2 -2 -2 -2 -2 -2 -2 -2 -2 -2 -2 -2 -2 -2 -2 -1 -1 -2 -2 -2 -1 -1 -1
-1 -1 -1 -1 -1 -2 -1 -1 -1 -2 -2 -2 -2 -2 -2 -2 -2 -2 -2 -2 -2 -2 -2 -2 -2 -2 -2 -2 -2 -2 -2 -1 -1 -1 -1 -1 -2 -2 -2 -1 -1 -0 -0
-1 -1 -1 -0 -1 -1 -2 -2 -1 -2 -2 -2 -2 -2 -2 -2 -2 -2 -2 -2 -2 -2 -2 -2 -2 -2 -2 -2 -2 -1 -1 -1 -1 -1 -1 -1 -2 -2 -1 -1 -0 -0 -0
-1 -1 -1 -1 -1 -0 -1 -1 -1 -1 -2 -2 -2 -2 -2 -2 -2 -2 -2 -2 -2 -2 -2 -2 -2 -2 -2 -2 -2 -1 -1 -1 -1 -1 -1 -1 -2 -2 -1 -1 -0 -0 -0
-1 -1 -1 -1 -1 -1 -1 0 0 -0 -1 -2 -2 -1 -1 -1 -2 -2 -1 -2 -2 -2 -2 -2 -2 -2 -2 -2 -1 -1 -1 -1 -2 -1 -2 -1 -2 -1 -1 -0 -0 -0 0
0 -0 -1 -1 -1 -1 -1 -0 1 1 -0 -0 -0 0 -0 -2 -2 -1 -1 -2 -2 -2 -2 -2 -2 -2 -2 -1 -0 0 -1 -2 -1 -2 -1 -2 -2 -1 -0 -0 -0 0 0
1 0 -1 -1 -1 -1 -1 -1 -1 -1 -2 -2 -2 -2 -1 -1 -2 -1 -0 -1 -1 -2 -2 -1 -1 -0 -0 -2 -1 -0 -2 -1 -1 -1 -1 -2 -1 -1 -0 0 0 0 1
1 0 -0 -1 -1 -1 -1 -1 -1 -1 -1 -2 -2 -2 -1 -1 -1 -2 -2 -2 -2 0 -1 -1 -1 -1 -1 -2 -2 -2 -2 -1 -1 -1 -0 -1 -1 -0 -0 0 1 1 1
1 1 0 -1 -1 -1 -1 -1 -1 -1 -1 -1 -1 -1 -1 -1 -1 -1 -1 -1 -1 -1 -1 -2 -2 -2 -1 -1 -1 -1 -1 -1 -0 -0 0 1 -1 -0 0 1 1 1 1
2 1 0 -0 -1 -1 -1 -1 -1 -1 -1 -1 -1 -1 -1 -0 -0 -1 -1 -1 -1 -1 -1 -1 -1 -1 -1 -1 -1 -1 -1 -0 0 -0 -0 1 -1 -0 1 1 1 2 2
1 1 -0 0 -0 -1 -1 -1 -1 -1 -1 -1 -1 -1 -1 -0 0 0 -0 -1 -1 -1 -1 -1 -1 -1 -1 -1 -1 -1 -1 0 1 0 -0 -0 0 -0 1 2 2 2 2
1 0 0 -0 0 -1 -1 -1 -1 -1 -1 -1 -1 -1 -0 -0 -1 0 1 0 -0 -1 -1 -1 -1 -1 -1 -1 -1 -1 -1 -0 1 1 0 0 1 1 1 2 2 2 2
1 1 0 -0 0 -0 -1 -1 -1 -1 -1 -1 -1 -1 -0 -0 -1 -1 0 1 0 -0 -1 -1 -1 -0 -0 -0 -0 -0 -1 -1 1 1 1 1 0 1 2 2 3 2 2
1 1 1 0 0 -0 -1 -1 -1 -1 -1 -1 -1 -1 -1 -1 -1 -1 -1 -1 -0 -0 -1 -1 -0 -0 0 0 0 -0 -1 -1 0 1 1 2 1 1 1 3 3 3 3
1 1 0 0 0 -0 -0 -0 -0 -0 -1 -1 -0 -0 -1 -1 -1 -1 -1 -1 -1 -0 -0 -0 -0 -0 0 0 1 1 -0 -1 0 1 1 2 2 2 2 3 4 5 4
1 1 1 1 0 0 1 1 1 1 0 -0 -0 -0 0 -0 -1 -1 -1 -1 -1 -0 -0 0 0 0 1 -0 1 1 2 1 1 1 1 2 2 3 3 4 5 5 5
2 1 1 1 1 0 0 0 0 0 0 -0 -0 -0 -0 0 0 -0 -1 -0 -1 -0 0 0 1 1 1 0 2 2 4 3 3 2 2 3 2 3 4 5 5 6 6
2 2 1 1 1 0 0 0 0 0 0 1 0 0 -0 -0 -0 0 0 -1 -0 -0 0 0 0 1 2 1 0 2 5 6 3 3 4 4 3 3 4 5 7 7 9
2 1 1 1 1 0 0 1 1 2 2 1 1 0 -0 0 0 0 0 0 -0 -0 0 0 -0 0 1 2 1 1 1 2 5 5 6 6 5 5 4 6 8 9 10
3 2 1 1 1 1 0 1 1 2 1 1 1 1 0 0 0 1 1 1 1 0 -0 -0 0 0 0 1 2 2 2 2 3 4 5 3 7 6 7 7 7 8 9
4 4 1 1 1 1 1 1 1 2 2 2 1 1 1 0 0 1 1 1 1 1 0 -0 -0 0 0 1 1 1 2 3 3 4 6 4 3 3 6 7 8 8 8